Temp
10 10 11 11 11 11 11 12 12 12 13 13 13 13 13 13 14 15 16 15 14 14 14 15 15 15 15 16 15 15 15 16 16 16 16 16 17 16 16 15 15 15 15 15 16
10 11 11 11 11 11 11 12 12 12 13 13 13 13 13 13 14 15 16 15 14 14 14 15 15 15 15 16 17 16 16 16 15 15 15 15 16 18 17 16 16 16 15 15 16
11 11 11 11 11 11 12 12 12 12 13 13 13 13 13 13 14 14 16 15 14 15 14 15 15 15 15 15 16 16 16 16 16 16 16 16 16 16 17 17 16 17 16 17 16
11 11 11 11 11 12 12 12 12 12 13 13 13 13 13 13 14 14 15 15 14 15 15 15 15 15 15 15 15 16 16 16 17 17 16 16 16 16 17 16 16 17 17 17 17
11 11 11 11 11 12 12 12 12 13 13 13 13 13 13 13 14 14 14 14 15 15 15 15 16 15 15 15 15 16 16 16 16 17 17 17 18 16 16 16 16 17 17 17 17
11 11 11 11 11 12 12 12 12 12 13 13 13 13 13 14 14 14 14 14 15 15 15 15 15 15 14 14 15 16 16 17 17 18 18 18 17 17 16 16 17 18 17 17 17
11 11 11 11 12 12 12 12 12 12 13 13 13 14 14 14 14 14 14 14 15 15 15 15 15 15 15 15 15 16 17 17 18 18 19 18 18 18 17 18 18 18 17 17 17
11 11 11 12 12 12 12 12 13 12 13 13 13 13 14 14 14 14 14 15 15 15 15 13 14 15 14 14 15 15 16 16 17 18 18 17 19 19 19 18 18 19 18 17 17
11 11 12 12 12 12 12 12 13 13 13 13 13 13 15 15 14 14 15 15 14 15 14 13 14 14 14 15 14 15 17 17 17 17 17 17 19 19 18 18 18 18 18 18 17
11 11 12 12 12 12 12 12 12 13 13 13 13 13 14 15 14 14 14 14 14 14 14 13 13 14 12 14 15 17 18 18 18 17 17 17 18 19 18 18 18 18 18 18 18
11 11 11 11 12 12 12 12 12 12 13 13 13 14 14 14 14 15 14 14 14 14 14 14 14 14 14 14 15 15 16 17 17 17 17 17 18 18 18 18 18 18 18 18 18
10 11 11 11 12 12 12 11 12 12 13 14 14 15 15 14 14 15 14 14 14 14 15 14 14 16 14 14 14 16 17 16 16 17 17 17 17 17 18 18 18 18 18 18 19
10 10 11 11 12 12 11 11 12 12 12 15 14 15 15 15 15 14 14 14 14 14 14 15 15 15 15 15 15 15 16 16 17 17 18 17 18 18 18 18 18 18 18 18 19
9 10 10 11 11 11 11 11 11 12 11 15 16 16 15 15 15 15 14 14 14 14 15 14 15 15 15 15 14 15 16 16 16 17 17 17 16 19 19 18 19 19 18 19 18
9 9 10 10 11 11 10 10 11 12 9 15 15 15 16 15 16 15 15 14 14 14 14 15 15 16 15 16 15 15 15 16 16 17 16 17 16 19 19 19 19 20 20 19 18
9 9 10 10 10 10 10 9 10 10 10 15 15 15 16 16 15 15 15 15 15 15 15 15 15 15 16 16 16 16 16 16 17 17 16 19 17 19 19 20 20 20 20 20 19
9 9 10 10 9 10 9 9 9 10 13 14 14 14 15 16 15 15 15 15 15 15 15 15 15 15 16 15 16 16 16 15 14 14 14 16 16 20 20 20 21 21 21 20 20
8 9 10 9 9 10 9 9 9 12 13 14 14 15 15 15 15 15 15 15 15 15 15 15 14 14 16 16 16 17 16 16 13 13 14 17 17 19 19 20 21 21 21 20 19
8 9 10 9 9 9 9 8 10 11 12 13 14 15 16 15 15 15 15 15 15 15 15 15 15 16 16 16 15 15 15 16 16 14 14 17 19 19 19 20 21 21 20 20 19
8 9 9 9 9 9 8 9 10 12 12 12 13 13 14 15 15 15 15 16 16 16 16 16 16 16 16 16 15 16 16 14 15 11 12 14 16 19 19 19 19 20 19 19 19
8 8 8 9 9 8 8 9 10 11 12 11 12 12 13 13 14 15 16 16 16 16 16 16 16 16 16 16 16 15 15 15 14 15 12 12 17 19 19 19 18 19 19 19 19
8 8 8 8 8 8 9 10 10 10 11 11 11 12 13 13 13 14 16 16 17 16 16 16 16 16 16 16 16 16 16 15 15 15 16 15 17 19 19 19 18 18 18 18 18
7 7 8 7 7 8 8 8 8 8 9 10 10 11 12 13 13 15 16 16 16 16 16 17 16 15 14 15 15 14 15 15 15 16 17 15 17 18 19 19 19 18 19 19 19
6 6 7 7 6 7 6 7 7 8 9 10 10 10 12 13 13 14 15 16 16 16 17 17 17 16 15 16 17 16 16 16 16 16 16 17 18 19 19 18 18 18 19 18 18
6 6 6 6 6 6 6 6 7 7 9 9 10 11 12 12 14 13 15 16 16 16 16 17 17 17 17 17 17 18 17 17 16 17 16 17 16 18 17 18 18 17 18 18 18
5 6 6 6 5 6 6 6 7 7 8 10 10 11 11 12 13 14 14 15 16 16 16 16 16 17 17 17 17 17 17 17 17 15 15 16 16 16 17 16 17 17 17 18 17
4 5 5 6 6 6 6 7 7 7 9 9 10 11 12 12 13 14 14 14 15 16 16 16 17 17 17 17 17 16 16 18 17 16 17 17 17 17 18 18 17 18 17 18 17
Height
3162 3163 3163 3163 3163 3163 3162 3161 3161 3161 3161 3161 3160 3160 3160 3159 3159 3159 3161 3165 3164 3165 3165 3166 3165 3166 3167 3165 3164 3165 3166 3166 3166 3166 3167 3167 3167 3166 3167 3167 3167 3167 3167 3169 3169
3160 3160 3160 3160 3160 3160 3159 3159 3158 3158 3158 3158 3158 3158 3158 3157 3157 3158 3160 3161 3161 3162 3164 3166 3166 3166 3167 3167 3164 3163 3166 3167 3168 3167 3168 3169 3169 3167 3167 3166 3166 3166 3166 3167 3169
3157 3157 3157 3157 3157 3156 3156 3156 3155 3155 3155 3156 3156 3156 3156 3156 3157 3156 3158 3160 3160 3161 3163 3165 3166 3167 3166 3167 3164 3164 3166 3166 3168 3167 3167 3168 3168 3166 3167 3166 3165 3165 3165 3167 3169
3153 3153 3153 3153 3153 3152 3153 3152 3152 3152 3152 3153 3152 3153 3154 3155 3158 3156 3156 3157 3159 3160 3162 3164 3166 3165 3164 3165 3164 3165 3166 3165 3167 3167 3167 3167 3167 3167 3168 3168 3166 3166 3166 3168 3170
3150 3149 3149 3149 3149 3149 3149 3148 3148 3148 3148 3149 3149 3150 3151 3153 3154 3155 3155 3156 3157 3158 3160 3163 3164 3163 3162 3164 3163 3162 3165 3165 3165 3166 3165 3165 3165 3165 3166 3167 3166 3166 3166 3169 3171
3146 3145 3145 3144 3144 3144 3144 3144 3144 3144 3145 3145 3146 3146 3148 3150 3151 3153 3154 3154 3155 3157 3160 3162 3163 3162 3161 3159 3161 3162 3162 3163 3163 3164 3165 3165 3165 3166 3166 3167 3166 3166 3167 3169 3171
3141 3141 3140 3140 3139 3139 3140 3140 3140 3140 3141 3141 3141 3142 3144 3147 3148 3150 3152 3153 3153 3155 3159 3161 3162 3161 3160 3161 3163 3162 3162 3162 3162 3163 3164 3166 3166 3166 3168 3167 3166 3166 3167 3169 3171
3136 3136 3135 3135 3135 3135 3135 3135 3135 3136 3136 3137 3137 3138 3139 3143 3143 3145 3150 3152 3152 3154 3158 3159 3162 3163 3162 3166 3164 3164 3164 3165 3164 3163 3166 3167 3167 3169 3170 3169 3168 3169 3169 3170 3171
3131 3130 3130 3130 3130 3131 3131 3130 3130 3131 3131 3132 3133 3134 3135 3137 3140 3144 3146 3150 3152 3154 3157 3157 3160 3161 3161 3163 3164 3163 3162 3164 3166 3166 3167 3168 3169 3170 3171 3171 3171 3170 3172 3173 3174
3125 3125 3125 3125 3126 3127 3127 3126 3125 3125 3126 3127 3128 3132 3133 3135 3136 3139 3143 3147 3149 3152 3155 3156 3159 3161 3165 3162 3159 3157 3159 3161 3164 3167 3167 3168 3169 3169 3170 3171 3172 3174 3173 3175 3177
3120 3120 3120 3120 3121 3122 3123 3122 3122 3120 3118 3120 3121 3124 3127 3129 3131 3135 3138 3141 3145 3148 3151 3154 3157 3157 3159 3164 3158 3158 3159 3162 3164 3165 3167 3167 3167 3168 3169 3170 3171 3173 3176 3176 3178
3114 3114 3115 3115 3116 3117 3118 3116 3116 3115 3114 3115 3117 3118 3122 3127 3128 3131 3134 3137 3139 3142 3148 3152 3151 3155 3157 3158 3158 3159 3158 3159 3162 3163 3166 3166 3166 3165 3166 3167 3170 3173 3174 3177 3178
3107 3108 3109 3111 3112 3113 3113 3111 3112 3112 3109 3110 3110 3112 3118 3122 3124 3127 3130 3133 3136 3140 3142 3146 3149 3152 3154 3156 3156 3155 3156 3158 3160 3159 3161 3162 3163 3165 3164 3164 3166 3169 3172 3175 3177
3102 3102 3103 3105 3110 3109 3109 3109 3110 3111 3109 3101 3102 3103 3110 3114 3117 3124 3127 3132 3134 3136 3141 3144 3146 3148 3150 3153 3154 3155 3157 3157 3155 3156 3158 3161 3160 3157 3159 3160 3162 3165 3167 3169 3174
3096 3096 3098 3100 3103 3105 3107 3107 3109 3112 3111 3099 3097 3098 3102 3109 3116 3119 3125 3128 3130 3134 3138 3140 3141 3144 3146 3148 3151 3152 3154 3154 3153 3155 3158 3158 3160 3152 3155 3157 3158 3159 3161 3166 3170
3090 3090 3092 3094 3098 3100 3103 3106 3109 3113 3103 3097 3096 3096 3098 3104 3113 3118 3121 3126 3130 3133 3135 3138 3140 3142 3143 3145 3147 3150 3151 3152 3151 3153 3153 3153 3155 3145 3149 3151 3152 3154 3157 3162 3165
3085 3084 3087 3089 3095 3096 3099 3105 3109 3105 3097 3098 3096 3096 3097 3100 3109 3113 3117 3120 3123 3127 3129 3133 3135 3138 3139 3142 3144 3146 3145 3146 3150 3151 3151 3149 3149 3144 3144 3144 3146 3149 3152 3157 3160
3078 3079 3081 3086 3087 3092 3096 3101 3101 3095 3095 3094 3094 3095 3096 3100 3105 3110 3113 3117 3120 3124 3128 3129 3132 3134 3135 3138 3140 3141 3143 3142 3152 3151 3148 3148 3146 3142 3141 3140 3141 3144 3150 3154 3158
3073 3074 3077 3081 3082 3086 3092 3093 3092 3093 3094 3093 3093 3091 3094 3099 3104 3106 3109 3111 3115 3119 3124 3125 3127 3129 3132 3133 3138 3139 3141 3145 3146 3145 3147 3145 3143 3141 3138 3135 3135 3138 3144 3149 3154
3070 3070 3072 3074 3077 3082 3085 3085 3087 3091 3091 3093 3093 3093 3094 3097 3099 3100 3105 3106 3110 3114 3119 3123 3125 3128 3129 3132 3134 3136 3139 3144 3145 3149 3148 3141 3140 3138 3135 3132 3132 3134 3140 3144 3148
3068 3068 3069 3070 3074 3077 3078 3081 3085 3090 3090 3092 3092 3093 3094 3095 3096 3098 3100 3104 3107 3111 3115 3118 3122 3126 3126 3126 3126 3132 3135 3140 3142 3140 3139 3141 3136 3136 3135 3133 3135 3136 3139 3142 3147
3066 3067 3068 3068 3072 3073 3076 3080 3083 3086 3089 3089 3088 3090 3092 3094 3092 3094 3095 3098 3101 3104 3107 3111 3116 3119 3122 3123 3124 3126 3128 3135 3140 3140 3136 3134 3128 3133 3137 3139 3138 3137 3138 3140 3142
3066 3067 3067 3068 3071 3072 3076 3077 3078 3080 3082 3083 3084 3086 3087 3089 3091 3089 3091 3094 3095 3097 3099 3104 3106 3112 3115 3119 3119 3121 3124 3128 3131 3132 3130 3130 3121 3129 3132 3133 3135 3133 3136 3138 3141
3068 3067 3067 3067 3068 3069 3070 3072 3074 3076 3075 3078 3079 3082 3083 3084 3086 3085 3087 3088 3089 3090 3091 3095 3099 3099 3103 3108 3113 3116 3118 3120 3122 3122 3124 3118 3118 3122 3126 3127 3127 3127 3130 3132 3134
3067 3066 3065 3066 3067 3067 3069 3070 3069 3070 3071 3072 3074 3077 3080 3080 3080 3080 3082 3083 3085 3086 3082 3084 3089 3094 3097 3102 3105 3107 3110 3112 3112 3113 3112 3110 3109 3111 3117 3116 3117 3116 3120 3125 3130
3065 3065 3064 3064 3064 3064 3066 3066 3067 3067 3068 3069 3069 3073 3074 3074 3075 3075 3078 3079 3080 3082 3082 3082 3083 3089 3092 3096 3099 3102 3105 3105 3105 3106 3106 3105 3104 3108 3109 3112 3114 3113 3117 3121 3124
3062 3060 3060 3059 3060 3060 3061 3062 3063 3063 3065 3064 3065 3066 3067 3068 3068 3071 3073 3075 3076 3078 3078 3078 3079 3083 3086 3090 3092 3093 3093 3099 3101 3101 3101 3101 3101 3105 3105 3107 3109 3111 3114 3117 3123
Wind_Speed
14 15 15 14 13 13 13 13 12 10 8 8 8 7 7 8 9 12 15 12 10 9 10 10 9 8 5 4 6 7 6 4 5 5 1 17 12 8 6 4 4 3 6 9 15
15 17 18 18 16 15 14 14 14 13 11 10 9 8 8 8 8 7 16 15 12 11 10 10 9 8 6 5 9 8 5 4 8 6 6 13 16 9 5 1 2 3 6 10 14
16 17 18 18 17 16 15 15 15 15 13 11 11 10 8 7 5 7 13 12 11 12 10 10 8 9 7 8 12 14 10 4 2 5 7 17 13 13 7 7 4 4 5 9 13
17 18 18 18 18 17 17 16 16 16 15 13 13 11 10 8 7 8 12 14 11 11 10 10 6 6 15 12 8 9 9 8 5 6 8 18 15 20 10 5 3 1 4 6 13
19 20 20 19 18 18 17 17 17 17 17 16 15 14 12 11 11 11 10 12 12 12 9 8 5 1 8 6 9 10 7 8 7 11 16 20 10 21 16 9 5 5 8 9 13
21 21 21 20 20 18 17 17 18 18 18 18 17 16 15 11 15 11 11 11 13 12 9 7 7 2 2 6 6 12 11 5 6 15 17 15 13 14 15 9 3 5 8 10 11
23 23 22 21 20 19 18 18 18 19 18 19 19 19 18 9 16 17 13 14 18 15 10 10 9 6 6 6 6 9 8 6 5 15 15 15 11 7 6 7 6 7 8 8 10
23 23 23 23 21 20 19 19 19 20 19 20 20 20 19 14 19 23 16 17 18 16 12 12 9 7 3 12 3 5 4 4 7 15 18 19 8 8 6 6 12 11 9 9 9
23 22 22 22 21 19 18 20 19 20 20 21 20 21 17 17 22 18 18 15 15 15 15 10 12 3 7 9 11 6 9 5 8 12 23 14 10 10 8 6 7 15 16 14 13
23 22 22 21 20 18 17 18 18 19 21 22 22 19 15 15 22 21 16 15 18 16 19 17 9 6 8 12 10 6 10 3 7 13 13 22 14 16 12 8 6 7 15 15 16
24 23 22 21 19 16 16 16 18 21 24 25 17 22 7 22 20 21 24 20 22 25 23 17 18 18 18 8 15 18 21 17 10 8 13 13 19 21 17 16 14 12 10 13 11
26 24 22 20 18 15 14 16 20 20 24 25 25 25 20 18 22 24 26 26 27 29 26 19 21 17 18 18 23 20 16 20 19 14 14 14 15 14 21 24 21 15 13 12 11
24 24 23 20 18 15 13 18 19 22 25 21 26 26 22 27 22 28 28 27 25 28 26 23 19 18 15 18 18 14 12 5 14 14 14 10 17 21 27 29 26 27 21 16 13
22 22 21 20 17 14 15 15 16 17 15 20 14 28 29 31 30 31 27 25 24 29 23 18 23 15 13 18 16 11 13 8 9 6 2 6 9 18 24 32 31 26 26 22 19
20 20 20 20 17 14 17 17 14 10 4 3 4 12 24 38 26 31 27 27 26 24 24 16 19 17 16 21 16 14 12 8 8 7 11 7 5 17 11 13 36 32 24 22 24
18 20 19 20 17 19 21 17 11 6 8 1 2 8 21 35 28 29 31 27 18 23 20 19 8 12 15 14 14 8 10 14 14 9 5 16 9 25 14 21 25 32 29 25 25
17 21 18 19 17 22 25 19 10 9 4 5 1 2 18 35 33 32 34 31 31 28 26 22 20 20 15 15 16 15 10 2 3 1 6 4 6 20 18 23 24 34 29 30 25
16 20 17 16 22 24 28 24 11 8 22 11 12 8 17 26 37 36 32 30 27 28 26 25 16 22 21 24 23 22 13 6 6 5 4 8 6 5 16 22 22 33 31 29 27
16 17 14 15 24 25 31 29 20 7 4 3 2 3 11 16 26 38 32 36 33 31 27 21 23 17 18 17 21 16 21 13 6 3 3 5 12 8 12 17 23 36 33 30 27
12 11 12 19 25 26 30 35 26 14 10 3 6 3 8 4 16 24 41 34 37 32 28 25 13 17 19 20 18 18 19 15 8 5 4 5 9 8 10 11 17 26 32 32 27
8 7 11 18 21 25 30 35 35 26 19 12 13 15 11 11 1 12 26 29 36 36 31 31 28 16 17 19 29 24 25 19 13 6 5 2 7 16 15 20 20 22 22 21 17
5 6 7 12 18 22 25 26 29 29 27 26 26 24 19 10 10 11 15 13 25 30 37 34 22 33 21 17 20 26 28 28 19 13 14 8 22 15 14 18 17 20 23 25 24
4 6 9 14 8 9 10 15 20 22 24 23 16 9 11 13 11 6 13 11 6 13 25 41 36 19 10 22 22 29 32 33 33 24 27 14 30 22 19 16 32 32 33 35 31
4 5 15 17 11 7 7 10 11 12 19 19 20 15 17 17 10 9 15 11 11 8 19 32 40 34 28 26 27 26 24 25 32 28 29 40 41 35 29 25 31 40 37 36 39
3 6 15 10 18 18 18 16 20 16 14 18 18 14 9 16 16 15 17 17 15 6 5 31 40 40 40 40 26 25 24 22 28 31 32 40 39 40 26 26 22 30 42 37 38
9 9 14 18 12 20 19 17 19 15 11 12 16 17 14 14 18 14 15 17 16 10 3 2 24 33 29 24 24 29 25 23 21 24 30 27 25 25 20 18 28 23 36 37 43
11 12 13 18 20 21 20 25 21 15 9 3 7 10 12 13 19 14 18 20 19 15 9 3 6 22 14 17 16 28 31 27 27 30 32 28 28 24 29 23 25 21 27 25 41
Wind_Direction
247 253 260 269 274 278 278 274 278 284 286 277 275 272 268 256 238 213 196 189 195 194 210 199 227 207 226 265 300 282 294 31 65 58 315 202 187 177 246 278 235 182 116 183 176
255 259 263 267 272 274 275 273 269 272 278 277 270 268 268 259 241 226 192 188 198 198 214 212 223 224 251 239 267 239 292 90 73 71 122 187 216 315 299 244 328 212 209 198 177
262 264 265 268 271 272 272 270 266 266 271 273 269 266 264 263 227 198 189 175 204 206 214 221 228 235 275 291 254 229 245 251 309 274 237 186 211 229 298 322 335 357 241 189 166
267 268 268 268 271 273 271 268 263 261 263 266 264 260 254 248 184 158 165 179 196 211 217 223 237 288 252 244 201 210 200 294 229 223 201 201 225 228 260 316 292 133 159 182 158
268 270 271 271 272 271 271 269 265 260 259 258 258 255 249 238 173 183 174 182 187 207 215 211 225 145 134 218 281 214 236 290 189 193 216 221 224 221 244 266 269 159 157 160 150
266 266 268 269 270 270 269 268 265 260 258 257 254 250 247 230 193 190 191 180 183 200 208 196 189 157 12 297 201 214 273 158 173 207 224 206 194 218 238 239 207 143 162 159 151
269 268 266 265 266 267 267 265 264 262 259 256 253 248 243 197 206 209 203 194 187 188 200 210 192 208 184 198 280 233 231 138 148 189 181 177 173 184 226 124 116 133 154 160 156
268 269 269 268 265 264 263 261 260 258 258 255 252 249 244 215 216 212 215 200 192 188 178 203 158 193 301 187 169 168 247 248 137 168 180 176 157 196 175 133 118 102 122 149 148
266 266 267 268 267 263 261 259 257 255 253 253 251 252 244 224 219 219 205 202 196 187 181 200 187 207 278 187 248 275 230 203 150 165 180 194 201 213 192 170 143 121 102 108 126
267 265 266 266 265 263 259 258 257 252 248 246 245 245 226 204 214 218 213 209 194 182 177 198 198 206 217 231 252 199 187 252 211 183 188 227 218 221 213 199 188 150 132 117 113
267 268 266 263 262 259 254 257 252 246 239 236 234 228 212 205 203 205 211 200 197 182 188 206 218 200 227 205 245 274 268 249 246 243 204 204 218 226 229 226 215 209 203 149 133
263 261 264 264 257 252 246 247 247 252 249 248 242 241 213 194 202 191 202 203 198 193 186 208 221 215 231 238 239 234 229 236 246 238 206 213 206 241 237 244 242 228 237 213 179
263 258 254 258 257 247 239 240 244 256 271 254 250 242 209 208 208 187 195 200 203 202 201 209 206 213 219 222 213 231 205 223 222 212 212 258 231 228 247 251 255 243 235 245 212
267 261 251 245 251 243 232 226 238 257 277 280 250 240 215 210 213 188 197 201 208 208 204 230 218 210 224 221 218 204 227 260 220 176 132 308 291 243 238 240 247 246 234 224 221
268 262 252 238 236 228 219 211 222 243 308 265 199 207 201 207 202 192 196 202 207 205 210 213 219 216 229 228 235 261 257 274 237 223 313 260 278 271 222 227 240 248 233 215 213
267 259 248 239 222 212 200 198 204 208 252 7 248 217 196 196 208 193 195 201 199 212 224 231 206 214 230 214 230 238 224 272 252 255 312 283 252 277 273 261 249 242 235 213 200
268 255 245 232 211 207 195 191 190 222 236 90 125 299 204 194 194 188 192 198 204 206 214 225 226 225 226 232 229 238 230 190 53 8 234 293 250 258 270 273 252 234 222 206 194
264 256 245 222 216 205 195 189 209 247 244 262 316 243 220 205 190 192 193 198 202 213 219 219 226 226 232 240 237 227 226 169 181 170 259 298 240 254 262 265 246 225 217 207 206
266 256 241 218 216 207 198 199 214 249 256 266 71 230 211 211 209 206 205 208 206 209 217 221 230 233 242 251 229 216 220 213 202 103 166 241 265 276 269 261 236 219 210 202 207
269 253 228 216 213 211 207 211 216 205 221 277 7 69 78 170 217 212 217 219 211 211 216 224 225 232 230 220 212 242 228 211 209 143 228 247 255 211 243 192 181 185 188 194 196
283 231 209 214 212 214 217 221 228 222 245 275 280 294 306 342 313 219 219 219 218 212 212 221 227 224 238 228 218 202 196 211 251 240 168 191 241 202 219 188 180 187 195 209 222
265 200 196 194 203 221 230 234 240 243 245 260 275 276 280 287 309 261 218 220 227 225 219 224 232 231 216 212 214 219 207 204 221 221 221 254 244 233 240 209 199 202 207 211 221
253 205 170 155 174 223 251 253 262 263 259 258 257 238 221 263 314 251 238 195 180 206 227 226 222 211 209 217 196 199 213 217 217 220 226 216 252 238 251 252 228 233 232 235 240
209 192 196 192 199 211 241 257 284 270 256 239 248 246 251 251 241 251 237 240 202 272 238 225 227 219 215 225 221 215 218 216 217 219 229 233 247 252 245 265 258 250 239 231 227
280 218 209 229 238 246 266 271 282 300 250 243 251 237 255 286 247 255 249 243 254 250 308 213 219 227 231 230 227 231 220 250 241 250 231 241 232 235 253 258 289 224 229 224 221
326 269 246 236 241 238 245 259 269 264 294 245 254 235 253 266 248 251 269 260 254 202 30 183 209 221 200 214 225 233 246 262 249 226 225 230 238 258 247 280 251 233 221 229 226
328 301 271 256 246 251 250 248 256 273 254 229 261 270 248 268 236 243 263 259 259 262 279 0 165 193 192 216 222 233 231 236 232 219 228 232 245 241 235 260 258 247 236 241 225